Meteo Giornale » Osservazioni meteo Stati Uniti (USA) » Saginaw MBSy
ore: 06:53 - Osservazioni Meteo Saginaw MBSy
Lat. 43° 32' N Lon. 84° 4' W Alt. 203 metri s.l.m.
21 °C
Foschia
Temp. 24 Ore
21 °C
27 °C
Sud-Ovest
11.1 Km/h
Dew point 21 °C
Umidità 100 %
Visibilità 8 Km
Il sole sorge alle ore 07:00
Il sole tramonta alle ore 20:11
| Data e Ora | Cielo e Fenomeni | T °C | DP °C | Um. % | Pres. hPa | Vis. km | Vento km/h | |
|---|---|---|---|---|---|---|---|---|
| Oggi h: 06:53 | Foschia | 21 | 21 | 100 | 1014 | 8 | SO 11.1 | |
| Oggi h: 05:53 | Foschia | 21 | 21 | 100 | 1014 | 10 | SO 11.1 | |
| Oggi h: 04:53 | Sereno | 21 | 21 | 100 | 1013 | 13 | S/SO 9.3 | |
| Oggi h: 03:53 | Sereno | 21 | 20 | 94 | 1013 | 14 | S/SO 7.4 | |
| Oggi h: 02:53 | Sereno | 22 | 20 | 88 | 1013 | 10 | S/SO 9.3 | |
| Oggi h: 01:53 | Sereno | 22 | 20 | 88 | 1013 | 10 | SO 13 | |
| Oggi h: 00:53 | Sereno | 22 | 20 | 88 | 1013 | 10 | S/SO 9.3 | |
| Ieri h: 23:53 | Sereno | 23 | 19 | 78 | 1014 | 10 | S/SO 7.4 | |
| Ieri h: 22:53 | Sereno | 23 | 19 | 78 | 1013 | 10 | S/SO 13 | |
| Ieri h: 21:53 | Sereno | 24 | 19 | 73 | 1013 | 10 | S/SO 13 | |
| Ieri h: 20:53 | Sereno | 24 | 19 | 73 | 1013 | 10 | SO 9.3 | |
| Ieri h: 19:53 | Sereno | 24 | 19 | 73 | 1012 | 10 | S/SO 11.1 | |
| Ieri h: 18:53 | Nuvoloso | 27 | 19 | 61 | 1012 | 10 | S/SO 14.8 | |
| Ieri h: 17:53 | Molto Nuvoloso | 27 | 21 | 69 | 1012 | 10 | S 20.3 | |
| Ieri h: 16:53 | Sereno | 26 | 22 | 78 | 1013 | 10 | S 22.2 | |
| Ieri h: 15:53 | Sereno | 26 | 21 | 73 | 1014 | 10 | S 27.8 | |
| Ieri h: 14:53 | Sereno | 26 | 21 | 73 | 1014 | 10 | S/SE 25.9 | |
| Ieri h: 14:26 | Nuvoloso | 24 | 21 | 83 | 1015 | 10 | S/SE 24 | |
| Ieri h: 13:53 | Coperto | 22 | 21 | 94 | 1016 | 11 | E 16.7 | |
| Ieri h: 13:48 | Coperto | 22 | 21 | 94 | 1016 | 11 | E 14.8 | |
| Ieri h: 13:27 | Coperto | 22 | 21 | 94 | 1016 | 11 | E 9.3 | |
| Ieri h: 12:53 | Coperto | 22 | 21 | 94 | 1016 | 14 | NE 7.4 | |
| Ieri h: 11:53 | Pioggia | 21 | 20 | 94 | 1016 | 11 | S/SE 11.1 | |
| Ieri h: 11:40 | Pioggia Foschia | 21 | 20 | 94 | 1016 | 10 | S 14.8 | |
| Ieri h: 11:25 | Temporale Foschia | 21 | 20 | 94 | 1017 | 8 | S/SO 9.3 | |
| Ieri h: 10:53 | Pioggia | 21 | 20 | 94 | 1018 | 11 | NO 9.3 | |
| Ieri h: 09:53 | Pioggia | 21 | 19 | 88 | 1017 | 14 | O 9.3 | |
| Ieri h: 08:53 | Coperto | 21 | 19 | 88 | 1016 | 10 | S/SO 11.1 | |
| Ieri h: 07:53 | Molto Nuvoloso | 21 | 19 | 88 | 1016 | 10 | S/SO 9.3 | |



